This demonstration page uses our WeatherBlox Daily Observations layout. Learn more.

Left ArrowRight Arrow

Hourly Observations for March 3, 2020

Temp ( °F °C ) Dew Point ( °F °C ) Humidity (%) Winds ( mph kmh ) Pressure ( in mb ) Visibility ( mi km ) Precip ( " mm )
6:10 am 06:10 Cloudy N/A N/A N/A NNW 12 19 N/A 2 3 N/A
6:35 am 06:35 Cloudy 44 6.9 44 6.9 100 100 NW 8 13 29.62 1003 3 4 N/A
6:55 am 06:55 Cloudy 44 6.5 44 6.5 100 100 NW 8 13 29.63 1003 3 5 N/A
7:15 am 07:15 Cloudy 43 6.3 43 6.3 100 100 WNW 6 9 29.65 1004 3 4 N/A
7:35 am 07:35 Cloudy 43 6.3 43 6.2 99 99 WNW 5 7 29.65 1004 3 5 N/A
7:55 am 07:55 Cloudy 43 6.1 43 5.9 99 99 WNW 6 9 29.65 1004 5 8 N/A
8:15 am 08:15 Cloudy 43 6.1 42 5.6 97 97 W 8 13 29.65 1004 7 11 N/A
8:35 am 08:35 Mostly Cloudy 43 6 42 5.5 97 97 W 8 13 29.66 1004 7 11 N/A
8:55 am 08:55 Partly Cloudy 43 6.3 42 5.5 95 95 W 7 11 29.66 1004 10 16 N/A
9:15 am 09:15 Mostly Cloudy 44 6.4 41 5.1 92 92 W 9 15 29.67 1005 10 16 N/A
9:35 am 09:35 Partly Cloudy 44 6.4 40 4.3 87 87 W 12 19 29.66 1004 10 16 N/A
9:55 am 09:55 Sunny 44 6.9 40 4.6 85 85 NW 8 13 29.66 1004 10 16 N/A
10:15 am 10:15 Partly Cloudy 46 7.6 40 4.3 80 80 WNW 8 13 29.67 1005 10 16 N/A
10:35 am 10:35 Sunny 46 8 37 2.9 70 70 WNW 12 19 29.67 1005 10 16 N/A
10:55 am 10:55 Sunny 47 8.2 38 3.2 71 71 WNW 13 20 29.69 1005 10 16 N/A
11:15 am 11:15 Partly Cloudy 47 8.5 38 3.2 70 70 W 9 15 29.67 1005 10 16 N/A
11:35 am 11:35 Sunny 49 9.2 38 3.2 66 66 W 15 24 29.67 1005 10 16 N/A
11:55 am 11:55 Sunny 49 9.5 38 3.2 65 65 W 15 24 29.68 1005 10 16 N/A
12:15 pm 12:15 Sunny 50 10.2 38 3.2 62 62 WSW 12 19 29.67 1005 10 16 N/A
12:35 pm 12:35 Sunny 52 10.9 39 3.8 62 62 W 16 26 29.68 1005 10 16 N/A
12:55 pm 12:55 Sunny 52 11 38 3.4 60 60 W 15 24 29.68 1005 10 16 N/A
1:15 pm 13:15 Partly Cloudy 53 11.4 37 3 57 57 W 17 28 29.68 1005 10 16 N/A
1:35 pm 13:35 Partly Cloudy 53 11.7 37 2.6 54 54 WSW 15 24 29.65 1004 10 16 N/A
1:55 pm 13:55 Partly Cloudy 53 11.8 35 1.7 50 50 W 14 22 29.65 1004 10 16 N/A
2:15 pm 14:15 Partly Cloudy 53 11.6 35 1.7 51 51 W 15 24 29.65 1004 10 16 N/A
2:35 pm 14:35 Cloudy 54 12.3 37 2.7 52 52 W 17 28 29.65 1004 10 16 N/A
2:55 pm 14:55 Mostly Cloudy 55 12.8 38 3.2 52 52 W 20 31 29.65 1004 10 16 N/A
3:15 pm 15:15 Mostly Cloudy 53 11.9 36 2.2 52 52 W 24 39 29.65 1004 10 16 N/A
3:35 pm 15:35 Mostly Cloudy 54 12.2 37 2.5 52 52 W 25 41 29.66 1005 10 16 N/A
3:55 pm 15:55 Mostly Cloudy 53 11.5 34 1.1 49 49 W 24 39 29.69 1005 10 16 N/A
4:15 pm 16:15 Partly Cloudy 52 11.2 34 1 50 50 W 17 28 29.70 1006 10 16 N/A
4:35 pm 16:35 Partly Cloudy 52 10.9 32 0.1 48 48 W 23 37 29.71 1006 10 16 N/A
4:55 pm 16:55 Partly Cloudy 51 10.6 32 -0.1 48 48 W 22 35 29.72 1006 10 16 N/A
5:15 pm 17:15 Mostly Cloudy 51 10.8 32 -0.1 47 47 W 23 37 29.73 1007 10 16 N/A
5:35 pm 17:35 Mostly Cloudy 51 10.8 31 -0.3 47 47 W 20 31 29.74 1007 10 16 N/A
5:55 pm 17:55 Partly Cloudy 51 10.3 32 -0.1 49 49 W 17 28 29.75 1007 10 16 N/A
6:15 pm 18:15 Partly Cloudy 50 10 31 -0.5 48 48 W 14 22 29.77 1008 10 16 N/A

Powered by AerisWeather